Weather History for KBKL - November, 2011

Change the Weather History Date:

Monday, November 21, 2011

  Actual Average Record
Temperature  
Mean Temperature 42 °F -  
Max Temperature 46 °F 46 °F - (-1)
Min Temperature 39 °F 36 °F - (-1)
Degree Days  
Heating Degree Days 22    
Moisture  
Dew Point 35 °F    
Average Humidity 74    
Maximum Humidity 83    
Minimum Humidity 66    
Precipitation  
Precipitation 0.00 in - - ()
Sea Level Pressure  
Sea Level Pressure 30.30 in    
Wind  
Wind Speed 10 mph (ENE)    
Max Wind Speed 16 mph    
Max Gust Speed -    
Visibility 10 miles    
Events      
Averages and records for this station are not official NWS values.
T = Trace of Precipitation, MM = Missing Value Source: NWS Daily Summary

Daily Weather History Graph

Daily Weather History Graph

Search for Another Location

Airport or City:

Trip Planner

Search our weather history database for the weather conditions in past years. The results will help you decide how hot, cold, wet, or windy it might be!

Date:

Astronomy

Nov. 21, 2011 Rise Set
Actual Time 7:22 AM EST 5:02 PM EST
Civil Twilight 6:52 AM EST 5:32 PM EST
Nautical Twilight 6:18 AM EST 6:06 PM EST
Astronomical Twilight 5:45 AM EST 6:39 PM EST
Moon 2:56 AM EST (11/21) 2:26 PM EST (11/21)
Length of Visible Light 10h 40m
Length of Day
9h 40m
Waning Crescent, 18% of the Moon is Illuminated
Nov 21
Waning Crescent
Nov 25
New
Dec 2
First Quarter
Dec 10
Full
Dec 17
Last Quarter

Hourly Weather History & Observations

Time (EST) Temp. Windchill Dew Point Humidity Pressure Visibility Wind Dir Wind Speed Gust Speed Precip Events Conditions
12:29 AM 42.8 °F 36.2 °F 35.6 °F 76% 30.28 in 10.0 mi NNE 12.7 mph - N/A   Scattered Clouds
12:53 AM 43.0 °F 35.4 °F 35.1 °F 74% 30.29 in 10.0 mi NNE 16.1 mph - N/A   Scattered Clouds
1:53 AM 43.0 °F 35.7 °F 34.0 °F 71% 30.28 in 10.0 mi NNE 15.0 mph - N/A   Overcast
2:53 AM 43.0 °F 37.2 °F 34.0 °F 71% 30.29 in 10.0 mi NE 10.4 mph - N/A   Overcast
3:53 AM 43.0 °F 37.7 °F 35.1 °F 74% 30.30 in 10.0 mi ENE 9.2 mph - N/A   Overcast
4:53 AM 43.0 °F 38.2 °F 35.1 °F 74% 30.29 in 10.0 mi East 8.1 mph - N/A   Overcast
5:53 AM 43.0 °F 38.8 °F 35.1 °F 74% 30.30 in 10.0 mi ENE 6.9 mph - N/A   Overcast
6:40 AM 42.8 °F 37.5 °F 33.8 °F 70% 30.30 in 10.0 mi East 9.2 mph - N/A   Mostly Cloudy
6:53 AM 42.8 °F 38.6 °F 33.8 °F 70% 30.30 in 10.0 mi East 6.9 mph - N/A   Mostly Cloudy
7:48 AM 42.8 °F 39.3 °F 35.6 °F 76% 30.31 in 10.0 mi ENE 5.8 mph - 0.00 in   Overcast
7:53 AM 42.1 °F 37.7 °F 35.1 °F 76% 30.33 in 10.0 mi ENE 6.9 mph - 0.00 in   Overcast
8:43 AM 42.8 °F 37.0 °F 35.6 °F 76% 30.32 in 10.0 mi ENE 10.4 mph - N/A   Overcast
8:53 AM 43.0 °F 37.2 °F 34.0 °F 71% 30.33 in 10.0 mi ENE 10.4 mph - N/A   Overcast
9:36 AM 42.8 °F 38.6 °F 35.6 °F 76% 30.33 in 10.0 mi ENE 6.9 mph - N/A   Overcast
9:53 AM 43.0 °F 40.3 °F 35.1 °F 74% 30.34 in 10.0 mi East 4.6 mph - N/A   Overcast
10:53 AM 43.0 °F 38.8 °F 35.1 °F 74% 30.34 in 10.0 mi ENE 6.9 mph - 0.00 in   Overcast
11:39 AM 44.6 °F 42.2 °F 35.6 °F 71% 30.31 in 10.0 mi ENE 4.6 mph - N/A   Overcast
11:53 AM 45.0 °F 42.6 °F 35.1 °F 68% 30.31 in 10.0 mi Variable 4.6 mph - N/A   Overcast
12:50 PM 46.4 °F 42.4 °F 35.6 °F 66% 30.28 in 10.0 mi NNE 8.1 mph - N/A   Scattered Clouds
12:53 PM 46.9 °F - 36.0 °F 66% 30.29 in 10.0 mi NNE 8.1 mph - N/A   Partly Cloudy
1:53 PM 46.0 °F 41.9 °F 36.0 °F 68% 30.27 in 10.0 mi NNE 8.1 mph - N/A   Clear
2:53 PM 46.0 °F 40.6 °F 37.0 °F 71% 30.27 in 10.0 mi NNE 11.5 mph - N/A   Scattered Clouds
3:53 PM 44.1 °F 37.4 °F 37.0 °F 76% 30.27 in 10.0 mi NE 13.8 mph - N/A   Clear
4:53 PM 43.0 °F 36.0 °F 36.0 °F 76% 30.27 in 10.0 mi NE 13.8 mph - N/A   Clear
5:53 PM 43.0 °F 37.7 °F 36.0 °F 76% 30.29 in 10.0 mi ENE 9.2 mph - N/A   Clear
6:53 PM 42.1 °F 36.1 °F 35.1 °F 76% 30.28 in 10.0 mi ENE 10.4 mph - N/A   Clear
7:53 PM 39.9 °F 33.4 °F 35.1 °F 83% 30.28 in 10.0 mi ENE 10.4 mph - N/A   Clear
8:53 PM 39.9 °F 34.5 °F 35.1 °F 83% 30.29 in 10.0 mi ENE 8.1 mph - N/A   Clear
9:53 PM 39.9 °F 34.5 °F 35.1 °F 83% 30.28 in 10.0 mi East 8.1 mph - N/A   Clear
10:53 PM 39.9 °F 33.4 °F 35.1 °F 83% 30.27 in 10.0 mi East 10.4 mph - N/A   Clear
11:53 PM 39.9 °F 35.1 °F 34.0 °F 79% 30.28 in 10.0 mi ENE 6.9 mph - N/A   Clear